CDC8987 VMMC-ZBAA

Flight info

Callsign CDC8987
Flight time 2h 33m
Altitude 35100
Route SHL A461 BUBDA/K0854S1100 W56 REBIS/K0848S1070 W56 IDPOG/K0845S1130 W56 LEBUN/K0837S1100 W56 NUDKU/K0839S1130 W56 DUGEB DUGEB6J
Aircraft A21N/M-SDE3FGHIRWY/LB1

Departure

Time 2026-04-16 11:33
Airport Macau International Airport (VMMC)

Arrival

Time 2026-04-16 14:06
Airport Beijing Capital International Airport (ZBAA)
Time Latitude Longitude Altitude Speed Heading
2026-04-16 10:54 22.15863 113.57600 21 ft 0 kts 284°
2026-04-16 11:16 22.15863 113.57601 21 ft 0 kts 284°
2026-04-16 11:16 22.15860 113.57613 19 ft 2 kts 284°
2026-04-16 11:16 22.15857 113.57629 18 ft 2 kts 284°
2026-04-16 11:16 22.15853 113.57645 16 ft 2 kts 284°
2026-04-16 11:17 22.15849 113.57660 15 ft 2 kts 284°
2026-04-16 11:17 22.15844 113.57676 14 ft 2 kts 316°
2026-04-16 11:17 22.15831 113.57684 14 ft 2 kts 347°
2026-04-16 11:17 22.15819 113.57685 14 ft 0 kts 12°
2026-04-16 11:18 22.15812 113.57682 14 ft 0 kts 16°
2026-04-16 11:25 22.15816 113.57684 14 ft 3 kts 15°
2026-04-16 11:25 22.15898 113.57707 14 ft 15 kts 15°
2026-04-16 11:25 22.16005 113.57737 14 ft 15 kts 15°
2026-04-16 11:25 22.16099 113.57793 12 ft 16 kts 65°
2026-04-16 11:26 22.16140 113.57922 10 ft 23 kts 71°
2026-04-16 11:26 22.16204 113.58122 9 ft 28 kts 71°
2026-04-16 11:26 22.16267 113.58316 9 ft 26 kts 71°
2026-04-16 11:26 22.16311 113.58456 11 ft 14 kts 71°
2026-04-16 11:27 22.16319 113.58479 12 ft 0 kts 71°
2026-04-16 11:31 22.16330 113.58514 13 ft 12 kts 71°
2026-04-16 11:31 22.16351 113.58581 14 ft 11 kts 71°
2026-04-16 11:32 22.16352 113.58617 15 ft 1 kts 136°
2026-04-16 11:32 22.16321 113.58631 15 ft 12 kts 161°
2026-04-16 11:32 22.15996 113.58749 14 ft 86 kts 160°
2026-04-16 11:32 22.15172 113.59056 20 ft 151 kts 161°
2026-04-16 11:33 22.14008 113.59498 347 ft 176 kts 162°
2026-04-16 11:33 22.12829 113.59936 961 ft 179 kts 163°
2026-04-16 11:33 22.11650 113.60359 1638 ft 178 kts 163°
2026-04-16 11:33 22.10469 113.60784 2150 ft 188 kts 163°
2026-04-16 11:34 22.09167 113.61256 2552 ft 204 kts 163°
2026-04-16 11:34 22.07789 113.61759 3086 ft 211 kts 163°
2026-04-16 11:34 22.06376 113.62279 3624 ft 214 kts 163°
2026-04-16 11:34 22.04954 113.62801 3889 ft 216 kts 163°
2026-04-16 11:35 22.03510 113.63332 4123 ft 221 kts 163°
2026-04-16 11:35 22.02027 113.63876 4752 ft 222 kts 163°
2026-04-16 11:35 22.00512 113.64432 5370 ft 222 kts 163°
2026-04-16 11:35 21.98970 113.64786 5768 ft 223 kts 185°
2026-04-16 11:36 21.97556 113.64212 5907 ft 222 kts 219°
2026-04-16 11:36 21.96676 113.62860 5905 ft 222 kts 251°
2026-04-16 11:36 21.96626 113.61201 5909 ft 225 kts 283°
2026-04-16 11:36 21.97419 113.59773 5908 ft 229 kts 315°
2026-04-16 11:37 21.98842 113.59023 5902 ft 233 kts 349°
2026-04-16 11:37 22.00487 113.59022 5929 ft 235 kts
2026-04-16 11:37 22.02137 113.59110 5911 ft 235 kts
2026-04-16 11:37 22.03769 113.59185 5909 ft 234 kts
2026-04-16 11:38 22.05420 113.59246 5904 ft 234 kts
2026-04-16 11:38 22.07060 113.59297 5962 ft 239 kts
2026-04-16 11:38 22.08766 113.59345 6342 ft 249 kts
2026-04-16 11:38 22.10480 113.59394 7063 ft 242 kts
2026-04-16 11:39 22.12140 113.59440 7585 ft 239 kts 360°
2026-04-16 11:39 22.13831 113.59600 7864 ft 240 kts
2026-04-16 11:39 22.15515 113.60043 7910 ft 261 kts 15°
2026-04-16 11:39 22.17326 113.60645 7912 ft 274 kts 17°
2026-04-16 11:40 22.19182 113.61285 7904 ft 276 kts 17°
2026-04-16 11:40 22.21014 113.61911 7899 ft 276 kts 16°
2026-04-16 11:40 22.22879 113.62542 7895 ft 277 kts 16°
2026-04-16 11:40 22.24741 113.63166 7895 ft 277 kts 16°
2026-04-16 11:41 22.26591 113.63786 7891 ft 277 kts 18°
2026-04-16 11:41 22.28371 113.64622 7891 ft 279 kts 28°
2026-04-16 11:41 22.29997 113.65807 8082 ft 287 kts 37°
2026-04-16 11:41 22.31639 113.67213 8534 ft 300 kts 38°
2026-04-16 11:42 22.33347 113.68711 9429 ft 300 kts 38°
2026-04-16 11:42 22.35089 113.70233 10239 ft 302 kts 38°
2026-04-16 11:42 22.36799 113.71714 10706 ft 315 kts 38°
2026-04-16 11:42 22.38558 113.73231 11016 ft 332 kts 37°
2026-04-16 11:43 22.40405 113.74822 11307 ft 350 kts 37°
2026-04-16 11:43 22.42355 113.76498 11591 ft 366 kts 38°
2026-04-16 11:43 22.44403 113.78293 11862 ft 382 kts 39°
2026-04-16 11:43 22.46471 113.80215 12123 ft 398 kts 40°
2026-04-16 11:44 22.48595 113.82219 12369 ft 412 kts 40°
2026-04-16 11:44 22.50783 113.84288 12633 ft 425 kts 40°
2026-04-16 11:44 22.53063 113.86446 13103 ft 431 kts 40°
2026-04-16 11:44 22.55307 113.88571 13653 ft 434 kts 40°
2026-04-16 11:45 22.57588 113.90731 14157 ft 438 kts 40°
2026-04-16 11:45 22.59881 113.92904 14553 ft 442 kts 40°
2026-04-16 11:45 22.62205 113.95104 14678 ft 443 kts 40°
2026-04-16 11:45 22.64549 113.97324 14680 ft 443 kts 40°
2026-04-16 11:46 22.66863 113.99506 14684 ft 442 kts 39°
2026-04-16 11:46 22.69426 114.01274 14658 ft 438 kts 21°
2026-04-16 11:46 22.72371 114.01987 14674 ft 432 kts
2026-04-16 11:46 22.75355 114.01623 14684 ft 426 kts 342°
2026-04-16 11:47 22.78088 114.00471 14696 ft 424 kts 334°
2026-04-16 11:47 22.80798 113.99189 14697 ft 424 kts 334°
2026-04-16 11:47 22.83507 113.97922 14688 ft 424 kts 334°
2026-04-16 11:47 22.86254 113.96670 14685 ft 423 kts 335°
2026-04-16 11:48 22.88950 113.95455 14684 ft 423 kts 334°
2026-04-16 11:48 22.91637 113.94140 14731 ft 426 kts 332°
2026-04-16 11:48 22.94362 113.92751 15171 ft 430 kts 332°
2026-04-16 11:48 22.97047 113.91375 15752 ft 430 kts 332°
2026-04-16 11:49 22.99779 113.89975 16235 ft 432 kts 332°
2026-04-16 11:49 23.02486 113.88584 16690 ft 435 kts 332°
2026-04-16 11:49 23.05221 113.87181 17137 ft 437 kts 331°
2026-04-16 11:49 23.08007 113.85770 17601 ft 439 kts 333°
2026-04-16 11:50 23.10836 113.84497 18027 ft 443 kts 335°
2026-04-16 11:50 23.13724 113.83334 18438 ft 446 kts 336°
2026-04-16 11:50 23.16663 113.82179 18834 ft 449 kts 336°
2026-04-16 11:50 23.19634 113.81016 19217 ft 452 kts 336°
2026-04-16 11:51 23.22604 113.79853 19603 ft 455 kts 336°
2026-04-16 11:51 23.25561 113.78693 19978 ft 457 kts 336°
2026-04-16 11:51 23.28582 113.77505 20339 ft 460 kts 336°
2026-04-16 11:51 23.31615 113.76311 20698 ft 463 kts 336°
2026-04-16 11:52 23.34652 113.75116 21057 ft 466 kts 336°
2026-04-16 11:52 23.37707 113.73912 21395 ft 469 kts 336°
2026-04-16 11:52 23.40801 113.72691 21742 ft 471 kts 336°
2026-04-16 11:52 23.43886 113.71474 22076 ft 474 kts 336°
2026-04-16 11:53 23.47020 113.70237 22402 ft 477 kts 336°
2026-04-16 11:53 23.50128 113.69009 22735 ft 479 kts 336°
2026-04-16 11:53 23.53413 113.67709 23068 ft 481 kts 335°
2026-04-16 11:53 23.56681 113.66416 23384 ft 484 kts 336°
2026-04-16 11:54 23.59883 113.65150 23823 ft 483 kts 335°
2026-04-16 11:54 23.63041 113.63902 24308 ft 480 kts 336°
2026-04-16 11:54 23.66171 113.62662 24741 ft 479 kts 335°
2026-04-16 11:54 23.69295 113.61424 25120 ft 479 kts 335°
2026-04-16 11:55 23.72441 113.60178 25523 ft 479 kts 335°
2026-04-16 11:55 23.75566 113.58937 25945 ft 477 kts 335°
2026-04-16 11:55 23.78686 113.57698 26338 ft 476 kts 335°
2026-04-16 11:55 23.81789 113.56465 26730 ft 476 kts 335°
2026-04-16 11:56 23.84896 113.55231 27119 ft 475 kts 335°
2026-04-16 11:56 23.87996 113.53999 27535 ft 473 kts 335°
2026-04-16 11:56 23.91083 113.52771 27928 ft 472 kts 335°
2026-04-16 11:56 23.94164 113.51545 28296 ft 471 kts 335°
2026-04-16 11:57 23.97262 113.50311 28653 ft 471 kts 335°
2026-04-16 11:57 24.00310 113.49097 29003 ft 470 kts 335°
2026-04-16 11:57 24.03400 113.47866 29376 ft 469 kts 335°
2026-04-16 11:57 24.06448 113.46651 29759 ft 468 kts 335°
2026-04-16 11:58 24.09503 113.45434 30147 ft 466 kts 335°
2026-04-16 11:58 24.12570 113.44281 30488 ft 467 kts 338°
2026-04-16 11:58 24.15748 113.43317 30796 ft 470 kts 341°
2026-04-16 11:58 24.18932 113.42590 31110 ft 473 kts 345°
2026-04-16 11:59 24.22203 113.42084 31439 ft 475 kts 349°
2026-04-16 11:59 24.25502 113.41815 31729 ft 478 kts 353°
2026-04-16 11:59 24.28816 113.41782 32028 ft 479 kts 356°
2026-04-16 11:59 24.32189 113.41879 32386 ft 478 kts 357°
2026-04-16 12:00 24.35490 113.41999 32699 ft 477 kts 357°
2026-04-16 12:00 24.38824 113.42109 32978 ft 477 kts 357°
2026-04-16 12:00 24.42149 113.42204 33308 ft 476 kts 356°
2026-04-16 12:00 24.45437 113.42303 33551 ft 477 kts 357°
2026-04-16 12:01 24.48770 113.42411 33787 ft 478 kts 357°
2026-04-16 12:01 24.52117 113.42521 34018 ft 478 kts 357°
2026-04-16 12:01 24.55432 113.42631 34187 ft 480 kts 357°
2026-04-16 12:02 24.62153 113.42853 34530 ft 482 kts 357°
2026-04-16 12:02 24.65498 113.42963 34680 ft 483 kts 356°
2026-04-16 12:02 24.68850 113.43069 34843 ft 484 kts 356°
2026-04-16 12:02 24.72260 113.43160 34980 ft 485 kts 356°
2026-04-16 12:03 24.79016 113.43334 35026 ft 488 kts 356°
2026-04-16 12:03 24.85791 113.43516 35036 ft 488 kts 356°
2026-04-16 12:04 24.92632 113.43701 35048 ft 489 kts 356°
2026-04-16 12:04 24.99409 113.43887 35045 ft 490 kts 356°
2026-04-16 12:05 25.06248 113.44076 35052 ft 491 kts 356°
2026-04-16 12:05 25.13083 113.44264 35048 ft 491 kts 356°
2026-04-16 12:06 25.19951 113.44456 35060 ft 490 kts 356°
2026-04-16 12:06 25.26792 113.44641 35068 ft 492 kts 356°
2026-04-16 12:07 25.33650 113.44833 35073 ft 491 kts 356°
2026-04-16 12:07 25.40517 113.45023 35079 ft 493 kts 356°
2026-04-16 12:08 25.47447 113.45214 35078 ft 492 kts 356°
2026-04-16 12:08 25.54372 113.45409 35083 ft 492 kts 356°
2026-04-16 12:09 25.61282 113.45607 35086 ft 493 kts 356°
2026-04-16 12:09 25.68249 113.45807 35097 ft 493 kts 356°
2026-04-16 12:10 25.75198 113.46006 35093 ft 494 kts 356°
2026-04-16 12:10 25.82106 113.46207 35090 ft 494 kts 356°
2026-04-16 12:11 25.89032 113.46271 35090 ft 491 kts 353°
2026-04-16 12:11 25.95905 113.46017 35075 ft 492 kts 352°
2026-04-16 12:12 26.02813 113.45737 35075 ft 493 kts 352°
2026-04-16 12:12 26.09710 113.45468 35083 ft 493 kts 352°
2026-04-16 12:13 26.16649 113.45200 35083 ft 492 kts 352°
2026-04-16 12:13 26.23523 113.44939 35087 ft 494 kts 352°
2026-04-16 12:14 26.30395 113.44679 35086 ft 493 kts 352°
2026-04-16 12:14 26.37302 113.44410 35085 ft 495 kts 352°
2026-04-16 12:15 26.44164 113.44150 35081 ft 493 kts 351°
2026-04-16 12:15 26.51047 113.43883 35075 ft 495 kts 351°
2026-04-16 12:16 26.57915 113.43617 35069 ft 495 kts 351°
2026-04-16 12:16 26.64793 113.43354 35071 ft 494 kts 351°
2026-04-16 12:17 26.71657 113.43093 35065 ft 493 kts 351°
2026-04-16 12:17 26.78557 113.42824 35067 ft 494 kts 350°
2026-04-16 12:18 26.85453 113.42557 35074 ft 496 kts 350°
2026-04-16 12:18 26.92354 113.42295 35075 ft 496 kts 350°
2026-04-16 12:19 26.99213 113.42031 35079 ft 496 kts 349°
2026-04-16 12:19 27.06129 113.41763 35083 ft 495 kts 349°
2026-04-16 12:20 27.13085 113.41494 35081 ft 494 kts 349°
2026-04-16 12:20 27.20108 113.41222 35077 ft 494 kts 349°
2026-04-16 12:21 27.27228 113.40949 35077 ft 494 kts 349°
2026-04-16 12:21 27.34321 113.40749 35074 ft 498 kts 352°
2026-04-16 12:22 27.41431 113.40873 35074 ft 499 kts 352°
2026-04-16 12:22 27.48550 113.41030 35069 ft 499 kts 352°
2026-04-16 12:23 27.55682 113.41177 35072 ft 500 kts 352°
2026-04-16 12:23 27.62810 113.41320 35073 ft 500 kts 352°
2026-04-16 12:24 27.69929 113.41734 35071 ft 505 kts 355°
2026-04-16 12:24 27.77014 113.42388 35070 ft 506 kts 355°
2026-04-16 12:25 27.84109 113.43029 35074 ft 508 kts 355°
2026-04-16 12:25 27.91204 113.43660 35082 ft 508 kts 355°
2026-04-16 12:26 27.98251 113.44275 35084 ft 506 kts 355°
2026-04-16 12:26 28.05265 113.44887 35088 ft 506 kts 355°
2026-04-16 12:27 28.12322 113.45473 35090 ft 506 kts 354°
2026-04-16 12:27 28.19350 113.45959 35089 ft 504 kts 354°
2026-04-16 12:28 28.26379 113.46453 35090 ft 505 kts 354°
2026-04-16 12:28 28.33396 113.46954 35080 ft 507 kts 354°
2026-04-16 12:29 28.40431 113.47467 35089 ft 506 kts 354°
2026-04-16 12:29 28.47412 113.47965 35088 ft 504 kts 353°
2026-04-16 12:30 28.54429 113.48463 35094 ft 505 kts 353°
2026-04-16 12:30 28.61486 113.48967 35096 ft 506 kts 353°
2026-04-16 12:31 28.68476 113.49470 35088 ft 505 kts 353°
2026-04-16 12:31 28.75525 113.49976 35084 ft 504 kts 353°
2026-04-16 12:32 28.82502 113.50474 35085 ft 507 kts 353°
2026-04-16 12:32 28.89591 113.50983 35083 ft 508 kts 353°
2026-04-16 12:33 28.96602 113.51492 35083 ft 505 kts 353°
2026-04-16 12:33 29.03643 113.52000 35085 ft 505 kts 353°
2026-04-16 12:34 29.10644 113.52505 35086 ft 505 kts 353°
2026-04-16 12:34 29.17658 113.53010 35087 ft 506 kts 353°
2026-04-16 12:35 29.24723 113.53519 35086 ft 507 kts 353°
2026-04-16 12:35 29.31720 113.54050 35086 ft 507 kts 354°
2026-04-16 12:36 29.38743 113.54662 35079 ft 506 kts 354°
2026-04-16 12:36 29.45773 113.55278 35070 ft 507 kts 354°
2026-04-16 12:37 29.52829 113.55895 35071 ft 505 kts 354°
2026-04-16 12:37 29.59841 113.56506 35071 ft 507 kts 354°
2026-04-16 12:38 29.66836 113.57116 35066 ft 506 kts 354°
2026-04-16 12:38 29.73855 113.57728 35065 ft 504 kts 354°
2026-04-16 12:39 29.80825 113.58340 35063 ft 503 kts 354°
2026-04-16 12:39 29.87800 113.59031 35056 ft 508 kts 357°
2026-04-16 12:40 29.94861 113.60538 35061 ft 521 kts
2026-04-16 12:40 30.01817 113.63095 35060 ft 528 kts 13°
2026-04-16 12:41 30.08590 113.66428 35066 ft 531 kts 16°
2026-04-16 12:41 30.15380 113.69887 35064 ft 532 kts 15°
2026-04-16 12:42 30.22135 113.73293 35067 ft 531 kts 15°
2026-04-16 12:42 30.28872 113.76674 35073 ft 529 kts 15°
2026-04-16 12:43 30.35629 113.80061 35061 ft 529 kts 15°
2026-04-16 12:43 30.42358 113.83439 35064 ft 529 kts 15°
2026-04-16 12:44 30.49114 113.86844 35062 ft 528 kts 16°
2026-04-16 12:44 30.55815 113.90224 35069 ft 527 kts 15°
2026-04-16 12:45 30.62555 113.93629 35075 ft 525 kts 16°
2026-04-16 12:45 30.69249 113.97008 35069 ft 525 kts 15°
2026-04-16 12:46 30.75891 114.00534 35065 ft 526 kts 18°
2026-04-16 12:46 30.82491 114.04132 35073 ft 525 kts 17°
2026-04-16 12:47 30.89099 114.07718 35069 ft 524 kts 17°
2026-04-16 12:47 30.95682 114.11288 35073 ft 523 kts 17°
2026-04-16 12:48 31.02297 114.14887 35062 ft 522 kts 17°
2026-04-16 12:48 31.08880 114.18461 35068 ft 522 kts 17°
2026-04-16 12:49 31.15471 114.22044 35072 ft 522 kts 17°
2026-04-16 12:49 31.22012 114.25611 35070 ft 522 kts 17°
2026-04-16 12:50 31.28637 114.29155 35073 ft 521 kts 14°
2026-04-16 12:50 31.35421 114.31802 35071 ft 508 kts
2026-04-16 12:51 31.42290 114.33189 35079 ft 495 kts 356°
2026-04-16 12:51 31.49052 114.33573 35073 ft 488 kts 351°
2026-04-16 12:52 31.55801 114.33730 35073 ft 485 kts 351°
2026-04-16 12:52 31.62554 114.33915 35076 ft 485 kts 352°
2026-04-16 12:53 31.69339 114.34126 35073 ft 487 kts 351°
2026-04-16 12:53 31.76071 114.34338 35075 ft 484 kts 351°
2026-04-16 12:54 31.82835 114.34543 35079 ft 485 kts 351°
2026-04-16 12:54 31.89566 114.34744 35072 ft 483 kts 351°
2026-04-16 12:55 31.96279 114.34944 35074 ft 483 kts 352°
2026-04-16 12:55 32.03000 114.35146 35079 ft 483 kts 352°
2026-04-16 12:56 32.09690 114.35351 35073 ft 483 kts 352°
2026-04-16 12:56 32.16405 114.35557 35061 ft 481 kts 352°
2026-04-16 12:57 32.23071 114.35760 35068 ft 481 kts 352°
2026-04-16 12:57 32.29791 114.36179 35059 ft 485 kts 354°
2026-04-16 12:58 32.36492 114.36800 35059 ft 484 kts 355°
2026-04-16 12:58 32.43264 114.37430 35070 ft 484 kts 355°
2026-04-16 12:59 32.49943 114.38045 35072 ft 483 kts 355°
2026-04-16 13:00 32.60031 114.38985 35065 ft 482 kts 356°
2026-04-16 13:00 32.66715 114.39600 35059 ft 481 kts 354°
2026-04-16 13:01 32.73420 114.40208 35062 ft 480 kts 355°
2026-04-16 13:01 32.80103 114.40826 35058 ft 480 kts 355°
2026-04-16 13:02 32.86766 114.41451 34933 ft 479 kts 355°
2026-04-16 13:02 32.93428 114.42072 35033 ft 481 kts 355°
2026-04-16 13:03 33.00110 114.42699 35055 ft 480 kts 355°
2026-04-16 13:03 33.06791 114.43327 35052 ft 479 kts 355°
2026-04-16 13:04 33.13469 114.43954 35055 ft 479 kts 355°
2026-04-16 13:04 33.20158 114.44584 35044 ft 480 kts 355°
2026-04-16 13:05 33.26836 114.45216 35055 ft 480 kts 355°
2026-04-16 13:05 33.33514 114.45843 35055 ft 480 kts 355°
2026-04-16 13:06 33.40189 114.46466 35056 ft 480 kts 355°
2026-04-16 13:06 33.46868 114.47096 35054 ft 480 kts 355°
2026-04-16 13:07 33.53569 114.47732 35053 ft 480 kts 355°
2026-04-16 13:07 33.60264 114.48366 35054 ft 480 kts 355°
2026-04-16 13:08 33.66924 114.48920 35060 ft 479 kts 353°
2026-04-16 13:08 33.73626 114.49461 35055 ft 480 kts 355°
2026-04-16 13:09 33.80281 114.50196 35076 ft 481 kts 355°
2026-04-16 13:09 33.86983 114.50886 35054 ft 480 kts 354°
2026-04-16 13:10 33.93663 114.51502 35057 ft 480 kts 354°
2026-04-16 13:10 34.00353 114.52125 35053 ft 479 kts 354°
2026-04-16 13:11 34.07032 114.52755 35043 ft 480 kts 354°
2026-04-16 13:11 34.13700 114.53386 35059 ft 480 kts 354°
2026-04-16 13:12 34.20375 114.54022 35056 ft 480 kts 354°
2026-04-16 13:12 34.27060 114.54658 35058 ft 480 kts 354°
2026-04-16 13:13 34.33747 114.55294 35053 ft 480 kts 354°
2026-04-16 13:13 34.40419 114.55934 35047 ft 480 kts 354°
2026-04-16 13:14 34.47134 114.56575 35047 ft 480 kts 354°
2026-04-16 13:14 34.53768 114.57213 35054 ft 480 kts 354°
2026-04-16 13:15 34.60491 114.57864 35053 ft 479 kts 354°
2026-04-16 13:15 34.67112 114.58511 35055 ft 478 kts 353°
2026-04-16 13:16 34.73776 114.59158 35052 ft 480 kts 354°
2026-04-16 13:16 34.80455 114.59810 35050 ft 478 kts 353°
2026-04-16 13:17 34.87136 114.60465 35052 ft 478 kts 354°
2026-04-16 13:17 34.93758 114.61113 35047 ft 477 kts 353°
2026-04-16 13:18 35.00420 114.61767 35048 ft 477 kts 353°
2026-04-16 13:18 35.07047 114.62418 35046 ft 479 kts 353°
2026-04-16 13:19 35.13702 114.63074 35043 ft 478 kts 353°
2026-04-16 13:19 35.20354 114.63719 35040 ft 476 kts 353°
2026-04-16 13:20 35.27000 114.64361 35039 ft 477 kts 353°
2026-04-16 13:20 35.33600 114.64999 35043 ft 475 kts 353°
2026-04-16 13:21 35.40228 114.65620 35039 ft 477 kts 354°
2026-04-16 13:21 35.46858 114.66248 35036 ft 477 kts 354°
2026-04-16 13:22 35.53556 114.66891 35046 ft 475 kts 354°
2026-04-16 13:22 35.60195 114.67524 35037 ft 476 kts 354°
2026-04-16 13:23 35.66828 114.68151 35037 ft 475 kts 354°
2026-04-16 13:23 35.73461 114.68785 35025 ft 473 kts 354°
2026-04-16 13:24 35.80028 114.69409 35043 ft 474 kts 354°
2026-04-16 13:24 35.86617 114.70040 35035 ft 472 kts 354°
2026-04-16 13:25 35.93200 114.70671 35053 ft 472 kts 354°
2026-04-16 13:25 35.99724 114.71300 35049 ft 471 kts 354°
2026-04-16 13:26 36.06284 114.71931 35055 ft 471 kts 354°
2026-04-16 13:26 36.12804 114.72565 35058 ft 471 kts 354°
2026-04-16 13:27 36.19323 114.73200 35070 ft 471 kts 355°
2026-04-16 13:27 36.25866 114.73846 35069 ft 471 kts 355°
2026-04-16 13:28 36.32437 114.74751 35072 ft 477 kts
2026-04-16 13:28 36.38950 114.76659 35072 ft 486 kts
2026-04-16 13:29 36.45339 114.79543 35073 ft 494 kts 15°
2026-04-16 13:29 36.51620 114.83157 35070 ft 497 kts 18°
2026-04-16 13:30 36.57846 114.86822 35071 ft 494 kts 17°
2026-04-16 13:30 36.64095 114.90449 35075 ft 495 kts 17°
2026-04-16 13:31 36.70405 114.94109 35070 ft 493 kts 17°
2026-04-16 13:31 36.76694 114.97774 35075 ft 493 kts 17°
2026-04-16 13:32 36.83028 115.01477 35088 ft 493 kts 18°
2026-04-16 13:32 36.89382 115.05197 35087 ft 493 kts 18°
2026-04-16 13:33 36.95677 115.08879 35087 ft 492 kts 18°
2026-04-16 13:33 37.01931 115.12543 35087 ft 490 kts 18°
2026-04-16 13:34 37.08212 115.16235 35085 ft 491 kts 18°
2026-04-16 13:34 37.14482 115.19929 35080 ft 491 kts 18°
2026-04-16 13:35 37.20781 115.23648 35077 ft 489 kts 19°
2026-04-16 13:35 37.27079 115.27375 35076 ft 488 kts 19°
2026-04-16 13:36 37.33270 115.31046 35079 ft 488 kts 19°
2026-04-16 13:36 37.39433 115.34705 35078 ft 488 kts 19°
2026-04-16 13:37 37.45556 115.38348 35076 ft 488 kts 19°
2026-04-16 13:37 37.51675 115.41994 35071 ft 486 kts 19°
2026-04-16 13:38 37.57779 115.45644 35069 ft 486 kts 19°
2026-04-16 13:38 37.63852 115.49278 35069 ft 486 kts 19°
2026-04-16 13:39 37.69969 115.52948 35075 ft 486 kts 19°
2026-04-16 13:39 37.73081 115.54669 35258 ft 484 kts 15°
2026-04-16 13:39 37.76222 115.56051 35152 ft 477 kts 11°
2026-04-16 13:40 37.82646 115.57799 35104 ft 468 kts
2026-04-16 13:40 37.89021 115.58215 35094 ft 459 kts 352°
2026-04-16 13:41 37.95412 115.57771 34861 ft 459 kts 350°
2026-04-16 13:41 37.98583 115.57510 34398 ft 457 kts 350°
2026-04-16 13:41 38.01726 115.57259 33822 ft 456 kts 351°
2026-04-16 13:41 38.04869 115.57015 33216 ft 457 kts 351°
2026-04-16 13:42 38.08197 115.56766 32440 ft 459 kts 351°
2026-04-16 13:42 38.11553 115.56595 31642 ft 462 kts 353°
2026-04-16 13:42 38.14899 115.56406 30811 ft 464 kts 352°
2026-04-16 13:42 38.18338 115.56170 29859 ft 465 kts 352°
2026-04-16 13:43 38.21674 115.55933 28957 ft 465 kts 352°
2026-04-16 13:43 38.25098 115.56032 28039 ft 471 kts
2026-04-16 13:43 38.28450 115.56880 27122 ft 477 kts 11°
2026-04-16 13:43 38.31676 115.58455 26172 ft 483 kts 20°
2026-04-16 13:44 38.34726 115.60339 25248 ft 484 kts 22°
2026-04-16 13:44 38.37747 115.62286 24296 ft 486 kts 22°
2026-04-16 13:44 38.40798 115.64259 23292 ft 487 kts 22°
2026-04-16 13:44 38.43809 115.66189 22466 ft 483 kts 23°
2026-04-16 13:45 38.46800 115.68091 21859 ft 475 kts 23°
2026-04-16 13:45 38.49737 115.69949 21241 ft 467 kts 23°
2026-04-16 13:45 38.52628 115.71774 20623 ft 460 kts 23°
2026-04-16 13:45 38.55492 115.73583 19999 ft 454 kts 22°
2026-04-16 13:46 38.58337 115.75381 19367 ft 448 kts 22°
2026-04-16 13:46 38.61122 115.77143 18736 ft 443 kts 22°
2026-04-16 13:46 38.63823 115.78931 18120 ft 439 kts 25°
2026-04-16 13:46 38.66459 115.80991 17494 ft 436 kts 30°
2026-04-16 13:47 38.68896 115.83257 17338 ft 436 kts 34°
2026-04-16 13:47 38.71270 115.85740 17335 ft 438 kts 36°
2026-04-16 13:47 38.73614 115.88261 17336 ft 438 kts 37°
2026-04-16 13:47 38.75930 115.90771 17340 ft 438 kts 37°
2026-04-16 13:48 38.78280 115.93318 17342 ft 438 kts 37°
2026-04-16 13:48 38.80593 115.95820 17344 ft 438 kts 36°
2026-04-16 13:48 38.82935 115.98354 17352 ft 438 kts 36°
2026-04-16 13:48 38.85392 116.01009 17363 ft 438 kts 37°
2026-04-16 13:49 38.87855 116.03674 17377 ft 439 kts 36°
2026-04-16 13:49 38.90308 116.06330 17406 ft 439 kts 37°
2026-04-16 13:49 38.92754 116.08981 17428 ft 440 kts 37°
2026-04-16 13:49 38.95179 116.11613 17462 ft 440 kts 36°
2026-04-16 13:50 38.97572 116.14212 17478 ft 441 kts 36°
2026-04-16 13:50 38.99983 116.16798 17499 ft 440 kts 34°
2026-04-16 13:50 39.02657 116.18720 17504 ft 431 kts 17°
2026-04-16 13:50 39.05557 116.19495 17532 ft 423 kts
2026-04-16 13:51 39.08508 116.19280 17569 ft 419 kts 350°
2026-04-16 13:51 39.11486 116.18807 17590 ft 419 kts 349°
2026-04-16 13:51 39.14467 116.18320 17611 ft 419 kts 349°
2026-04-16 13:51 39.17362 116.17856 17638 ft 418 kts 350°
2026-04-16 13:52 39.20288 116.17397 17650 ft 419 kts 350°
2026-04-16 13:52 39.23173 116.16953 17406 ft 420 kts 350°
2026-04-16 13:52 39.26060 116.16512 16667 ft 419 kts 350°
2026-04-16 13:52 39.29026 116.16058 15898 ft 414 kts 351°
2026-04-16 13:53 39.31961 116.15614 15268 ft 406 kts 351°
2026-04-16 13:53 39.34865 116.15173 14522 ft 401 kts 351°
2026-04-16 13:53 39.37729 116.14757 13845 ft 395 kts 353°
2026-04-16 13:53 39.40600 116.15140 13134 ft 386 kts 14°
2026-04-16 13:54 39.42934 116.16743 12544 ft 382 kts 34°
2026-04-16 13:54 39.44730 116.19311 12207 ft 368 kts 53°
2026-04-16 13:54 39.45748 116.22437 11881 ft 349 kts 72°
2026-04-16 13:54 39.46112 116.25617 11613 ft 327 kts 78°
2026-04-16 13:55 39.46352 116.28554 11377 ft 305 kts 78°
2026-04-16 13:55 39.46582 116.31351 11167 ft 295 kts 78°
2026-04-16 13:55 39.46817 116.33978 10993 ft 295 kts 78°
2026-04-16 13:55 39.47066 116.36614 10808 ft 294 kts 77°
2026-04-16 13:56 39.47313 116.39226 10647 ft 292 kts 77°
2026-04-16 13:56 39.47561 116.41817 10497 ft 291 kts 77°
2026-04-16 13:56 39.47948 116.44374 10320 ft 283 kts 62°
2026-04-16 13:56 39.48971 116.46471 10170 ft 269 kts 40°
2026-04-16 13:57 39.50385 116.48041 10028 ft 264 kts 33°
2026-04-16 13:57 39.51819 116.49510 9666 ft 264 kts 33°
2026-04-16 13:57 39.53260 116.50991 9313 ft 264 kts 34°
2026-04-16 13:58 39.56148 116.54005 8622 ft 263 kts 35°
2026-04-16 13:58 39.57549 116.55483 8286 ft 262 kts 35°
2026-04-16 13:58 39.58968 116.56986 7949 ft 261 kts 36°
2026-04-16 13:58 39.60376 116.58477 7614 ft 260 kts 36°
2026-04-16 13:59 39.61769 116.59957 7275 ft 259 kts 37°
2026-04-16 13:59 39.63161 116.61433 6932 ft 259 kts 37°
2026-04-16 13:59 39.64547 116.62906 6591 ft 258 kts 37°
2026-04-16 13:59 39.65939 116.64387 6249 ft 258 kts 37°
2026-04-16 14:00 39.67464 116.65566 5871 ft 256 kts 16°
2026-04-16 14:00 39.69218 116.65751 5539 ft 254 kts 354°
2026-04-16 14:00 39.70974 116.65467 5198 ft 254 kts 352°
2026-04-16 14:00 39.72788 116.65172 4847 ft 254 kts 353°
2026-04-16 14:01 39.74558 116.64887 4511 ft 254 kts 353°
2026-04-16 14:01 39.76316 116.64608 4180 ft 254 kts 352°
2026-04-16 14:01 39.78077 116.64331 3857 ft 254 kts 352°
2026-04-16 14:01 39.79870 116.64050 3535 ft 254 kts 353°
2026-04-16 14:02 39.81632 116.63773 3218 ft 254 kts 352°
2026-04-16 14:02 39.83429 116.63491 3043 ft 263 kts 352°
2026-04-16 14:02 39.85256 116.63205 3033 ft 258 kts 352°
2026-04-16 14:02 39.87045 116.62926 3027 ft 242 kts 352°
2026-04-16 14:03 39.88769 116.62656 3031 ft 234 kts 352°
2026-04-16 14:03 39.90498 116.62383 2982 ft 235 kts 352°
2026-04-16 14:03 39.92176 116.62119 2734 ft 232 kts 352°
2026-04-16 14:03 39.93871 116.61852 2408 ft 231 kts 353°
2026-04-16 14:04 39.95473 116.61599 2097 ft 230 kts 354°
2026-04-16 14:04 39.97085 116.61345 1769 ft 216 kts 354°
2026-04-16 14:04 39.98624 116.61104 1496 ft 214 kts 353°
2026-04-16 14:04 40.00072 116.60877 1272 ft 195 kts 353°
2026-04-16 14:05 40.01375 116.60673 1007 ft 179 kts 353°
2026-04-16 14:05 40.02605 116.60479 735 ft 165 kts 353°
2026-04-16 14:05 40.03745 116.60310 481 ft 149 kts 352°
2026-04-16 14:05 40.04793 116.60129 254 ft 140 kts 353°
2026-04-16 14:06 40.05781 116.59974 142 ft 139 kts 353°
2026-04-16 14:06 40.06667 116.59839 125 ft 105 kts 355°
2026-04-16 14:06 40.07275 116.59744 125 ft 67 kts 353°
2026-04-16 14:06 40.07663 116.59733 125 ft 40 kts 16°
2026-04-16 14:07 40.07816 116.59823 125 ft 13 kts 58°
2026-04-16 14:07 40.07767 116.59903 125 ft 13 kts 173°
2026-04-16 14:07 40.07670 116.59917 125 ft 13 kts 173°
2026-04-16 14:07 40.07571 116.59934 125 ft 14 kts 174°
2026-04-16 14:08 40.07470 116.59950 125 ft 14 kts 173°
2026-04-16 14:08 40.07366 116.59966 125 ft 14 kts 173°
2026-04-16 14:08 40.07262 116.59984 125 ft 15 kts 173°
2026-04-16 14:08 40.07153 116.59999 125 ft 15 kts 175°
2026-04-16 14:09 40.07041 116.60016 125 ft 15 kts 173°
2026-04-16 14:09 40.06933 116.60033 125 ft 10 kts 173°
2026-04-16 14:09 40.06927 116.60034 125 ft 0 kts 173°
2026-04-16 14:14 40.06926 116.60034 125 ft 0 kts 173°
2026-04-16 14:15 40.06897 116.60039 125 ft 9 kts 173°
2026-04-16 14:15 40.06792 116.60056 125 ft 20 kts 173°
2026-04-16 14:15 40.06634 116.60079 125 ft 21 kts 174°
2026-04-16 14:15 40.06478 116.60104 125 ft 21 kts 173°
2026-04-16 14:16 40.06328 116.60127 125 ft 20 kts 173°
2026-04-16 14:16 40.06197 116.60155 125 ft 16 kts 152°
2026-04-16 14:16 40.06177 116.60287 125 ft 15 kts 83°
2026-04-16 14:16 40.06191 116.60431 125 ft 16 kts 83°
2026-04-16 14:17 40.06152 116.60536 125 ft 14 kts 169°
2026-04-16 14:17 40.06048 116.60553 125 ft 14 kts 174°
2026-04-16 14:17 40.05940 116.60569 125 ft 15 kts 173°
2026-04-16 14:17 40.05891 116.60609 125 ft 7 kts 91°
2026-04-16 14:18 40.05900 116.60678 125 ft 6 kts 75°
2026-04-16 14:18 40.05910 116.60711 125 ft 1 kts 66°
2026-04-16 14:18 40.05912 116.60717 125 ft 0 kts 66°
2026-04-16 14:18 40.05912 116.60716 125 ft 0 kts 66°